Lapse_Rate
5.1 5.2 5.3 5.3 5.4 5.4 5.4 5.4 5.5 5.6 5.8 5.8 5.9 5.7 5.9 5.9 5.9 5.7 5.9 6.1 6.1 6.2 6.3 6.3 6.5 6.2 6.2 6.2 6.3 6.4 6.9 7.7 9.1 9.6 8.4 6.8 7.5 7.3 7.5 7.1 7.6 7.9 6.8 6.9 7.1
5.2 5.2 5.4 5.3 5.3 5.4 5.4 5.4 5.5 5.6 5.6 5.7 5.8 5.8 5.7 5.9 5.9 5.6 6.2 6.1 6.1 6.2 6.3 6.3 6.5 6.4 6.4 6.3 6.5 6.6 7.3 8.5 8.2 8.6 7.3 6.9 7.6 7.0 7.6 7.1 7.1 7.1 7.1 7.0 7.0
5.2 5.1 5.2 5.3 5.4 5.3 5.3 5.4 5.4 5.5 5.6 5.7 5.7 5.7 5.7 5.8 6.1 5.6 5.8 5.8 5.7 5.9 6.2 6.3 6.4 6.5 6.4 6.7 6.8 6.8 7.3 7.2 7.0 7.1 7.3 7.3 7.3 7.1 7.6 6.9 6.2 6.9 7.5 7.2 7.3
5.2 5.2 5.3 5.4 5.3 5.5 5.4 5.5 5.5 5.6 5.5 5.6 5.6 5.8 5.8 5.7 5.7 4.9 5.6 5.8 5.9 5.9 6.0 6.3 6.3 6.1 6.4 6.9 6.8 6.8 7.1 6.7 6.9 7.3 7.7 7.4 7.1 7.0 7.2 7.2 7.2 7.2 7.3 7.2 7.0
5.4 5.4 5.5 5.4 5.5 5.5 5.4 5.5 5.4 5.5 5.6 5.6 5.7 5.7 5.9 5.6 5.8 5.4 6.0 6.0 6.1 6.0 6.0 6.1 6.1 6.1 6.4 6.8 6.7 6.8 7.1 6.7 6.6 7.2 7.3 6.9 6.9 6.9 6.7 7.2 7.3 7.1 7.1 7.1 7.1
5.7 5.7 5.7 5.4 5.5 5.5 5.5 5.5 5.5 5.5 5.4 5.5 5.6 5.5 5.5 5.8 5.2 5.7 6.1 6.1 6.1 6.0 5.8 6.0 5.7 6.1 6.4 6.3 6.8 6.6 7.0 6.8 6.9 7.0 7.0 7.0 6.9 6.5 6.8 7.0 7.2 7.2 7.1 7.0 6.9
5.7 5.6 5.7 5.5 5.6 5.7 5.7 5.7 5.6 5.6 5.4 5.3 5.3 5.2 5.5 6.0 5.5 5.5 6.1 6.1 6.2 6.0 5.9 6.1 6.2 6.3 6.1 6.3 6.4 7.0 7.0 6.9 7.1 7.3 7.1 7.0 6.9 6.7 6.7 7.0 7.0 7.1 7.1 7.0 7.0
5.2 5.4 5.5 5.5 5.5 5.6 5.5 5.6 5.5 5.4 5.3 5.4 5.4 5.2 5.6 5.8 5.6 5.7 5.9 6.2 6.1 6.0 5.9 6.1 6.1 6.1 6.3 6.2 6.7 6.8 7.0 7.4 8.0 7.4 7.1 7.2 7.6 6.5 6.9 7.0 7.1 7.0 6.9 6.8 6.6
5.3 5.3 5.4 5.4 5.4 5.4 5.4 5.3 5.3 5.4 5.2 5.2 5.4 5.0 5.5 5.6 5.9 6.1 6.3 6.1 5.9 6.0 6.1 6.2 5.9 6.1 6.0 6.4 6.9 7.3 7.8 8.1 8.0 7.3 7.5 7.3 7.4 6.9 6.8 6.7 6.4 6.9 6.8 6.5 6.3
5.7 5.6 5.5 5.5 5.5 5.4 5.4 5.3 5.0 5.0 5.1 5.1 5.5 4.9 5.8 5.7 4.8 6.1 6.1 6.0 5.5 6.0 6.3 6.1 6.0 6.1 6.2 6.5 7.6 8.6 8.2 8.7 9.4 7.3 7.1 7.3 7.4 6.6 6.7 6.4 6.1 6.3 6.2 6.3 6.0
5.3 5.6 5.6 5.7 5.6 5.5 5.3 5.2 5.1 4.9 4.9 5.8 5.5 5.3 5.0 5.3 5.6 5.8 5.8 5.9 5.9 5.7 5.9 5.9 6.0 6.4 6.9 7.5 7.5 7.0 7.3 7.6 8.3 7.4 7.0 6.8 7.1 7.7 6.4 5.7 5.9 5.8 5.6 5.8 5.9
4.8 5.0 5.1 5.4 5.6 5.7 5.4 5.1 5.1 4.6 4.6 4.9 5.6 5.0 5.4 4.9 5.1 5.5 5.6 6.0 5.9 5.8 5.8 6.2 6.3 6.7 7.2 6.9 6.9 7.2 7.3 7.6 7.8 8.2 7.8 6.8 7.2 7.6 7.6 6.3 5.6 5.5 5.4 5.1 5.7
5.1 4.7 5.1 5.0 4.9 5.2 5.1 5.1 5.1 4.8 4.4 4.4 5.7 5.8 6.3 5.3 4.9 5.4 5.6 6.1 5.9 6.1 6.5 6.7 7.1 7.1 6.8 6.8 6.9 7.1 7.2 7.5 7.8 8.1 7.4 7.0 7.3 7.9 8.3 7.1 5.8 5.8 5.5 5.1 5.4
5.0 5.2 5.4 5.3 5.1 4.9 4.8 4.9 4.9 4.5 4.3 4.2 5.8 6.0 5.7 5.2 4.8 5.5 5.4 5.9 5.9 6.3 6.7 6.8 7.2 6.9 6.7 6.7 6.9 7.2 7.6 7.7 7.4 7.3 7.5 8.0 7.8 8.6 8.2 7.7 6.3 6.0 6.1 5.5 6.0
5.2 5.3 5.4 5.7 4.8 5.7 4.8 4.3 4.6 4.3 4.8 6.4 5.6 4.7 5.6 5.5 5.9 6.0 6.7 6.0 5.9 6.4 6.7 6.7 7.1 7.2 6.9 6.9 7.0 7.0 7.2 7.1 7.4 7.4 7.3 7.6 8.0 8.3 9.2 7.7 6.5 6.3 6.1 5.9 6.5
5.4 5.9 5.6 4.8 4.6 4.3 4.5 4.3 4.2 4.2 4.5 6.3 5.8 5.3 5.7 5.5 5.7 5.8 5.8 6.0 6.3 6.5 6.6 6.6 7.4 6.8 6.5 6.7 6.8 7.0 6.6 6.9 7.0 7.4 7.2 7.6 8.1 7.9 8.9 8.9 7.6 5.8 5.3 6.1 6.7
5.3 5.3 5.4 4.6 4.9 4.5 4.6 4.0 4.2 4.0 5.3 6.3 6.1 5.8 5.9 5.8 5.9 6.0 5.7 6.3 6.1 6.4 6.2 6.7 6.8 6.8 6.3 6.5 6.5 6.6 6.6 7.0 7.2 7.6 7.4 8.3 8.6 9.3 8.6 8.4 8.1 7.1 6.8 5.7 6.2
5.5 5.9 6.1 5.7 4.8 4.8 4.7 5.0 4.4 4.5 5.4 6.8 6.3 6.0 5.8 6.4 6.0 5.9 5.8 6.3 6.4 6.5 7.0 6.7 6.8 6.8 6.5 5.9 6.9 6.7 7.0 7.5 7.7 8.1 8.7 9.1 9.1 8.5 8.6 7.6 7.6 7.8 7.4 7.1 6.7
4.9 5.8 6.3 6.1 5.7 5.4 5.4 5.3 4.6 4.7 6.0 6.7 7.0 6.7 6.4 6.6 6.6 6.4 6.2 6.3 6.5 7.0 7.1 7.8 7.6 8.0 7.5 6.4 6.6 6.9 6.8 7.3 7.6 7.6 7.8 7.8 8.6 8.1 7.6 7.3 7.4 7.7 7.9 7.2 6.6
5.2 5.0 6.3 6.3 5.8 5.6 6.4 5.7 5.2 5.2 6.0 6.7 7.3 6.5 7.0 7.2 7.1 6.9 7.0 6.9 7.0 7.2 7.5 7.5 8.1 8.1 7.1 7.4 6.8 7.2 7.3 7.1 7.2 7.1 7.3 7.9 8.5 8.4 7.7 7.3 6.6 6.9 6.9 6.8 6.0
5.9 5.6 6.3 6.5 6.2 6.3 6.9 5.8 5.8 5.4 6.6 7.3 7.0 7.1 7.6 7.3 7.0 7.3 7.5 7.9 7.7 8.2 7.9 8.0 8.2 8.0 7.1 6.9 7.4 7.4 7.3 7.4 7.5 7.5 7.7 7.6 7.9 8.2 7.9 7.5 7.4 7.5 7.7 7.4 6.6
6.4 6.1 5.8 6.4 6.2 6.5 6.4 5.7 6.4 6.2 7.2 6.9 7.2 7.5 7.6 7.5 8.0 8.2 8.0 8.0 7.4 7.9 7.5 8.2 8.0 8.2 7.9 7.9 7.9 8.0 7.4 7.5 7.3 7.5 7.9 8.0 7.5 8.1 7.6 7.4 7.8 7.9 7.9 7.5 6.5
7.2 6.7 6.2 6.5 6.4 6.6 6.2 6.5 6.8 6.6 7.2 6.5 6.8 7.2 7.3 7.8 8.3 8.2 7.9 7.6 8.1 8.0 7.7 8.1 7.8 8.3 8.2 7.8 7.9 7.9 7.8 7.8 8.0 8.0 7.5 7.8 7.3 7.7 7.9 7.9 7.9 7.6 7.7 7.1 6.6
7.0 7.2 7.1 6.8 7.0 6.8 6.4 6.2 6.4 7.0 7.0 7.0 6.7 7.0 7.3 7.6 7.9 7.9 8.6 7.8 7.6 7.8 7.9 8.0 8.2 8.5 8.8 8.7 8.0 7.7 7.9 7.9 8.2 8.2 7.9 7.6 7.8 7.9 8.1 8.3 8.2 8.0 8.1 7.7 7.3
7.1 7.0 7.5 7.1 6.9 6.7 6.3 6.3 6.7 6.9 7.0 7.3 7.0 7.0 6.7 7.2 7.5 7.9 8.2 7.5 7.7 8.0 8.2 7.9 7.8 8.5 8.5 8.2 7.6 7.4 7.3 7.7 8.2 8.2 8.3 7.5 8.2 7.8 8.2 8.1 8.1 7.8 7.8 7.8 7.5
7.0 7.0 7.1 7.4 7.6 7.9 7.0 6.7 6.9 6.9 7.2 6.9 6.7 7.1 7.0 7.1 7.2 7.2 6.8 6.9 7.0 7.5 7.6 7.5 7.4 7.6 7.9 8.2 7.9 7.6 7.3 7.9 7.7 7.3 7.9 8.3 7.9 8.4 8.2 8.2 8.0 7.9 7.6 7.6 7.2
7.0 7.1 7.5 7.3 7.3 7.2 7.5 7.7 7.3 7.2 7.5 7.5 7.6 7.6 7.3 7.5 7.6 7.0 7.0 6.8 6.6 7.2 7.6 7.6 7.3 7.3 7.3 7.7 7.6 6.9 6.9 7.6 7.7 8.0 8.1 8.3 8.0 8.0 8.4 8.4 8.1 8.0 7.6 7.3 7.2
Wind_Speed
10 9 7 7 7 8 9 11 13 15 16 19 21 26 27 29 33 16 12 2 3 14 16 16 19 12 10 13 6 10 9 12 14 13 13 9 7 5 4 17 18 10 17 13 14
12 10 9 8 7 7 9 11 13 14 17 19 21 25 29 28 18 20 3 2 6 9 10 15 13 13 9 8 4 5 9 12 11 13 12 9 4 10 5 16 15 16 12 11 12
14 12 10 9 8 7 9 10 12 14 16 19 21 25 30 29 14 3 4 2 5 8 13 14 13 13 13 9 10 7 13 9 7 11 10 7 1 5 5 14 9 14 11 12 12
16 14 12 10 9 8 8 10 12 14 17 18 20 25 33 7 7 6 4 3 6 12 13 12 12 12 13 12 5 7 10 2 5 3 3 2 5 8 12 10 11 11 10 10 10
18 16 14 12 10 9 9 11 12 14 15 16 18 23 12 9 16 10 7 10 8 11 9 10 11 11 12 7 3 10 10 1 0 2 4 4 5 3 13 11 11 10 9 9 9
18 18 16 14 11 9 9 11 12 13 15 15 16 21 10 16 6 3 7 5 10 8 9 7 7 10 10 7 8 7 7 7 7 9 8 7 10 10 9 9 10 9 8 8 8
14 19 17 14 11 9 7 8 11 11 13 13 14 10 12 19 14 8 7 9 7 7 8 1 7 10 9 10 5 7 10 12 14 12 10 5 10 13 15 11 10 10 8 9 9
3 3 3 7 5 3 3 6 10 10 10 9 13 11 9 13 18 12 9 10 9 8 7 4 7 11 8 11 9 12 12 11 15 13 9 6 12 17 16 13 12 12 9 9 8
6 3 3 3 1 1 3 8 8 7 5 8 7 9 15 5 11 14 15 15 13 10 7 3 8 10 9 11 11 14 12 15 9 14 10 12 7 16 15 14 14 12 10 9 8
9 9 5 2 3 4 4 4 5 5 6 8 9 10 19 16 8 5 7 11 11 10 9 10 7 10 11 12 12 7 17 13 8 13 4 8 11 15 16 15 12 12 12 9 8
11 14 8 5 1 4 1 2 3 3 5 12 10 13 10 13 2 9 10 10 12 12 14 15 11 14 16 17 17 6 9 12 11 9 9 8 11 11 18 15 13 12 12 10 8
14 10 12 6 4 4 4 2 3 3 9 19 23 22 25 15 5 15 10 11 14 16 16 15 16 17 17 2 4 9 13 14 13 14 7 5 14 13 16 19 14 13 12 12 12
10 11 8 7 8 3 3 4 6 7 5 9 23 25 24 25 21 16 15 15 14 17 18 17 7 6 8 8 7 13 14 15 15 14 6 9 15 18 17 16 14 11 12 12 11
11 11 13 8 2 5 4 6 5 3 4 7 12 17 28 21 26 26 23 18 19 20 19 19 19 12 10 11 12 15 14 15 13 12 12 9 10 12 12 15 14 10 7 10 10
13 12 13 21 3 9 6 14 9 2 3 3 15 3 11 28 2 22 22 26 25 22 15 18 16 17 20 16 15 16 6 6 10 12 14 16 10 12 11 16 16 14 12 11 11
15 12 10 12 10 8 9 15 5 1 9 5 6 10 9 22 23 3 9 24 23 24 22 23 20 11 16 12 15 8 5 9 11 10 13 15 14 9 8 16 19 17 16 14 12
19 15 7 7 10 15 13 8 5 6 7 7 11 12 15 16 23 15 11 18 21 18 22 23 23 16 8 11 7 11 9 5 8 8 10 14 12 6 10 10 16 14 15 15 12
20 16 9 8 12 15 10 6 7 13 19 5 4 9 13 14 16 19 14 15 21 21 10 17 18 24 16 18 14 14 15 7 7 9 10 2 4 4 13 12 11 8 11 14 11
19 8 6 6 14 1 7 11 11 14 14 15 7 8 11 14 8 16 17 16 18 20 17 7 20 14 24 13 17 14 15 14 13 13 7 8 10 10 11 11 9 8 6 9 9
8 9 13 13 11 4 8 13 15 21 20 17 16 13 13 15 13 9 11 11 20 20 20 13 10 4 5 1 15 16 3 6 4 4 7 9 12 3 10 11 10 7 11 9 10
7 5 7 19 6 6 7 7 22 22 21 19 16 21 18 13 13 16 10 11 12 13 16 14 9 4 8 8 13 10 10 8 7 9 4 5 3 7 5 3 5 3 4 6 9
6 6 9 14 8 3 6 18 21 20 23 12 9 10 10 15 16 20 20 18 4 7 13 11 2 5 13 8 16 13 15 14 4 6 6 9 8 8 7 7 5 6 8 6 12
4 6 11 13 13 10 16 22 26 22 22 6 14 15 13 14 10 14 16 5 6 5 3 4 4 5 8 7 5 8 9 14 12 9 13 9 4 2 5 8 10 12 8 9 12
2 6 5 7 16 24 17 29 26 27 24 19 19 20 15 14 13 8 9 5 2 5 4 2 4 7 8 10 2 6 13 15 14 8 9 12 8 11 9 11 13 13 8 7 12
4 3 6 8 13 21 25 20 27 23 25 21 12 19 16 11 15 15 6 5 2 2 2 3 6 2 5 10 3 12 13 15 15 12 13 9 12 14 9 12 13 5 6 3 11
4 3 5 11 22 24 22 21 22 29 24 30 22 17 16 14 11 3 2 6 3 5 5 5 2 3 4 6 8 10 15 15 15 13 16 13 19 15 13 16 2 2 2 1 5
1 5 2 10 21 17 21 29 29 25 22 26 27 20 16 15 5 4 12 5 4 2 2 3 2 3 7 9 10 6 15 13 14 16 13 15 17 13 12 11 4 4 4 4 3
Wind_Direction
240 249 262 278 295 313 324 329 332 330 330 326 326 323 322 323 321 307 274 105 310 339 325 279 279 259 274 256 231 275 271 265 278 223 96 108 156 111 360 90 64 75 75 102 126
238 239 243 260 279 296 310 318 322 324 323 324 326 323 321 326 310 294 125 264 22 334 322 327 320 323 296 245 241 233 249 272 8 33 114 110 233 127 203 125 108 97 99 99 82
235 240 243 247 263 282 298 307 313 319 319 324 327 325 320 324 297 85 163 305 328 298 280 295 287 283 282 258 261 253 242 12 66 26 15 68 191 104 272 85 83 117 108 91 96
236 238 241 244 258 270 284 295 307 315 318 324 326 326 320 300 294 89 182 241 277 285 287 284 280 268 266 266 201 274 265 315 67 69 332 117 15 102 77 87 82 82 104 110 95
236 235 236 238 243 257 274 290 301 310 314 318 324 324 330 295 269 144 206 232 268 266 281 301 290 286 264 269 330 252 270 160 245 212 244 264 210 197 115 118 113 111 107 101 99
242 244 242 236 239 250 272 288 299 304 305 311 317 321 287 275 291 143 248 269 263 272 274 274 305 336 298 293 278 10 314 273 237 219 221 232 226 122 131 135 130 130 116 106 89
251 247 245 247 243 247 262 288 301 305 298 302 307 306 283 257 290 279 232 268 286 283 290 252 314 281 328 257 256 273 263 250 232 231 227 185 230 193 143 153 146 133 124 109 108
356 355 282 187 180 196 277 309 307 296 290 293 298 299 262 272 283 277 241 238 235 250 264 312 278 277 268 300 264 252 246 256 231 186 131 190 276 128 151 162 160 149 144 133 112
288 278 273 303 134 1 321 309 309 292 270 276 274 210 275 188 227 243 236 234 230 226 242 267 257 253 247 249 259 222 248 218 140 175 169 187 153 148 162 180 166 162 155 152 137
277 274 243 234 322 321 337 334 310 295 234 249 253 291 236 240 204 222 215 243 230 196 216 233 232 238 226 239 240 266 208 237 227 174 198 229 243 161 181 189 174 178 172 160 146
245 252 231 227 286 274 230 290 273 234 227 214 199 221 304 206 120 225 211 213 210 208 217 209 223 231 235 228 250 340 297 298 304 141 175 234 260 251 183 194 193 185 167 167 153
230 223 230 163 161 287 280 249 348 2 288 241 252 246 265 281 244 231 175 200 202 217 216 241 227 246 246 333 269 273 280 279 273 274 240 237 263 260 197 188 195 185 172 170 143
213 214 217 199 156 167 259 248 53 15 268 241 246 243 236 242 237 231 188 213 210 225 225 220 166 187 226 210 249 254 259 269 270 285 199 236 257 253 249 171 187 176 175 160 159
207 212 212 201 154 153 206 248 205 162 286 262 214 242 229 227 245 235 231 224 231 242 232 247 236 227 222 244 240 258 256 262 249 273 261 246 275 295 126 162 170 166 147 126 121
209 218 224 186 229 188 171 186 169 258 293 128 203 62 199 206 15 210 217 226 225 227 235 239 238 235 247 242 234 251 301 281 270 260 270 260 264 252 226 171 174 167 161 155 151
206 220 254 213 261 257 156 143 149 176 234 255 129 186 193 198 217 142 223 219 233 235 249 247 266 216 243 236 241 263 198 246 253 258 257 252 250 258 251 198 178 163 156 154 141
202 209 189 239 222 227 170 152 179 226 220 206 185 188 206 206 215 209 226 218 209 217 231 244 232 247 226 248 197 232 209 228 218 223 247 251 248 276 122 97 134 143 152 144 154
207 202 219 215 267 331 177 175 207 227 231 42 192 189 208 206 206 218 230 233 218 216 235 226 237 220 185 216 220 219 213 219 224 239 278 92 207 57 81 114 108 113 135 143 153
214 213 227 223 217 147 188 203 211 218 255 229 221 211 215 226 210 209 222 238 227 230 224 258 237 225 224 182 214 221 215 249 279 286 280 260 271 103 105 111 123 125 124 143 160
211 224 232 221 191 193 204 209 225 234 269 283 262 245 239 213 194 228 219 224 236 213 212 256 283 264 112 277 203 241 297 214 241 221 226 246 255 112 151 161 156 185 178 192 184
201 222 220 185 160 224 208 209 226 233 245 246 256 259 222 242 241 238 235 231 213 224 197 232 261 215 133 199 196 213 224 235 225 232 263 279 284 171 152 117 122 315 192 195 189
189 217 185 155 191 235 201 214 225 225 248 257 281 286 279 234 248 223 241 236 222 230 200 212 295 227 209 216 232 211 211 222 211 235 257 255 253 119 141 151 200 235 263 254 125
207 202 172 177 195 212 223 227 231 226 240 222 265 252 270 275 260 270 229 20 344 198 157 187 237 212 216 188 241 242 250 222 225 228 240 256 248 75 138 187 236 239 259 139 143
187 188 233 199 205 199 213 221 222 227 236 238 240 279 255 261 262 259 243 144 131 270 60 285 227 224 219 202 100 220 252 251 253 246 257 245 265 270 286 299 305 311 17 108 145
186 245 206 181 194 211 213 223 221 218 217 232 223 239 261 235 268 239 340 119 170 134 227 210 227 76 323 126 164 240 255 278 252 259 236 260 255 272 304 316 302 8 31 39 143
167 189 256 184 208 204 214 219 239 223 214 222 223 224 222 237 226 297 126 277 208 173 205 207 192 83 327 271 234 239 245 252 257 250 265 271 272 274 279 276 186 184 227 217 168
188 222 292 210 195 201 208 220 223 237 212 221 220 232 231 246 13 132 176 201 317 277 123 46 33 172 243 245 271 294 246 248 261 262 260 261 267 288 280 281 56 48 123 151 220